Быковец

Молдова     47°08′51″N   28°21′46″E
темп.,
°C
ветер,
м/с
пор.,
м/с
влажн.,
%
обл.,
%
осадки,
мм/ч
давл.,
гПа
погр.,
м
21 июня, пн
пн2100:00+17сз229618 0.7 101213
03:00+16сз22976 0.7 101113
06:00+16сз1198100 0.0 101117
09:00+20ссз1188100 0.0 1012408
12:00+23юв227699 0.1 1012888
15:00+25ююв136321 0.4 10111252
18:00+26ююв135956 0.1 1011952
21:00+23вюв1169100 0.1 101111
22 июня, вт
вт2200:00+20в117526 0.0 101211
03:00+19вюв1183100 0.0 101111
06:00+19сз118766 0.9 101111
09:00+23ссв237580 0.9 1012278
12:00+26ссв346898 0.9 1012648
15:00+26ссв236599 11.7 1012451
18:00+27св126237 0.6 1011995
21:00+24с1174100 1.0 101111
23 июня, ср
ср2300:00+22с118032 0.0 101211
03:00+21ссз1185100 0.0 101211
06:00+20ссз2289100 0.3 101327
09:00+23всв238641 2.1 1014328
12:00+27ссв33635 0.0 1014891
15:00+29ссв33555 0.0 10141448
18:00+28ссв34617 0.0 10141576
21:00+24ссз227586 0.0 101411
24 июня, чт
чт2400:00+22зсз11832 1.8 101511
03:00+20сз11914 6.3 101512
06:00+21сз22923 0.0 101523
09:00+24ссз23846 1.4 1015415
12:00+27ссз226923 3.8 10151128
15:00+28ссз23657 5.8 10151178
18:00+28ссз225975 2.5 10151411
21:00+23с35815 3.7 101573
25 июня, пт
пт2500:00+22ссв22843 0.9 101514
03:00+21сз228830 1.9 101413
06:00+21ссз22906 0.0 101426
09:00+25ссз24791 0.0 1015435
12:00+28с34670 0.0 10141014
15:00+30с34594 0.0 10131489
18:00+29св446482 0.1 1012929
21:00+24ссв1279100 0.6 101317